Location: Muck Cross
(36.7179°N, 78.3678°W)
Time: 21:52:26
(UTC+00:00)

A-11 Canister half - Visible Passes

Search period start: 21 March 2023 00:00
Search period end: 31 March 2023 00:00
Orbit: 1512 x 1687 km, 47.2° (Epoch: 21 March)

Date Brightness Start Highest point End Pass type
(mag) Time Alt. Az. Time Alt. Az. Time Alt. Az.
21 Mar 10.4 00:50:25 10° SSE 00:53:26 15° SE 00:53:26 15° SE visible
21 Mar 10.6 02:49:54 10° SW 02:51:45 18° SW 02:51:45 18° SW visible
21 Mar 10.8 05:12:48 18° NE 05:12:48 18° NE 05:15:01 10° ENE visible
21 Mar 9.7 07:10:59 46° N 07:11:45 47° N 07:21:27 10° ENE visible
21 Mar 9.3 09:09:09 15° NW 09:18:11 73° NNE 09:28:13 10° ESE visible
22 Mar 10.3 00:28:13 10° SSE 00:33:12 15° ESE 00:33:19 15° ESE visible
22 Mar 9.9 02:27:03 10° SW 02:31:39 32° SSW 02:31:39 32° SSW visible
22 Mar 11.0 04:50:57 14° NE 04:50:57 14° NE 04:52:00 10° ENE visible
22 Mar 9.8 06:49:08 46° N 06:49:08 46° N 06:58:21 10° ENE visible
22 Mar 9.3 08:47:18 20° NW 08:55:09 71° NNE 09:05:13 10° ESE visible
23 Mar 10.3 00:06:09 10° SSE 00:10:21 14° ESE 00:13:21 12° ESE visible
23 Mar 9.3 02:04:13 10° SSW 02:11:42 50° S 02:11:42 50° S visible
23 Mar 11.0 04:09:00 10° WSW 04:29:09 - ENE 04:10:02 14° WSW visible
23 Mar 9.9 06:27:21 43° NNE 06:27:21 43° NNE 06:35:16 10° ENE visible
23 Mar 9.3 08:25:32 25° NW 08:32:07 68° NNE 08:42:11 10° ESE visible
23 Mar 9.4 10:27:24 10° WNW 10:37:03 50° SW 10:46:29 10° SSE visible
23 Mar 10.4 23:44:21 10° SE 23:47:30 12° ESE 23:50:41 10° E visible
24 Mar 9.1 01:41:25 10° SSW 01:50:47 54° SE 01:51:49 52° ESE visible
24 Mar 10.3 03:45:58 10° WSW 04:07:28 - ENE 03:50:11 29° W visible
24 Mar 10.1 06:05:40 37° NE 06:05:40 37° NE 06:12:11 10° ENE visible
24 Mar 9.3 08:03:51 33° NW 08:09:05 66° NNE 08:19:08 10° ESE visible
24 Mar 9.3 10:04:21 10° WNW 10:14:07 53° SW 10:23:41 10° SSE visible
25 Mar 9.1 01:18:36 10° SSW 01:27:52 51° SE 01:31:59 34° E visible
25 Mar 9.5 03:22:56 10° WSW 03:45:55 - ENE 03:30:20 53° W visible
25 Mar 10.4 05:44:07 30° NE 05:44:07 30° NE 05:49:05 10° ENE visible
25 Mar 9.4 07:42:20 42° NW 07:46:03 63° NNE 07:56:06 10° ESE visible
25 Mar 9.2 09:41:19 10° WNW 09:51:11 57° SW 10:00:52 10° SSE visible
26 Mar 9.2 00:55:51 10° SSW 01:04:57 48° SE 01:12:06 19° ENE visible
26 Mar 9.2 02:59:55 10° WSW 03:09:46 69° NNW 03:10:26 68° N visible
26 Mar 10.7 05:06:42 10° WNW 05:22:48 22° ENE 05:26:00 10° ENE visible
26 Mar 9.4 07:21:02 54° NNW 07:23:00 61° NNE 07:33:02 10° ESE visible
26 Mar 9.1 09:19:16 14° WNW 09:28:14 60° SW 09:38:02 10° SE visible
27 Mar 9.3 00:33:05 10° SSW 00:42:03 45° SE 00:51:20 10° ENE visible
27 Mar 9.2 02:36:55 10° WSW 02:46:45 72° NNW 02:50:21 45° NE visible
27 Mar 10.3 04:43:37 10° WNW 05:01:46 14° ENE 05:02:55 10° ENE visible
27 Mar 9.4 07:00:02 59° NNE 07:00:02 59° NNE 07:09:58 10° E visible
27 Mar 9.1 08:58:18 23° WNW 09:05:17 64° SW 09:15:10 10° SE visible
28 Mar 9.4 00:10:21 10° SSW 00:19:09 42° SE 00:28:14 10° ENE visible
28 Mar 9.1 02:13:56 10° WSW 02:23:44 75° NNW 02:29:58 27° NE visible
28 Mar 9.9 04:20:33 10° WNW 04:41:05 - ENE 04:28:16 43° NNW visible
28 Mar 9.7 06:39:22 48° ENE 06:39:22 48° ENE 06:46:53 10° E visible
28 Mar 9.0 08:37:41 37° WNW 08:42:20 68° SW 08:52:17 10° SE visible
28 Mar 9.5 23:47:39 10° SSW 23:56:16 39° SE 00:05:10 10° ENE visible
29 Mar 9.1 01:50:57 10° WSW 02:00:44 78° NNW 02:09:14 16° NE visible
29 Mar 9.7 03:57:28 10° W 04:07:01 47° N 04:07:30 47° N visible
29 Mar 10.3 06:03:53 10° WNW 06:19:04 31° E 06:23:48 10° E visible
29 Mar 9.0 08:17:23 59° W 08:19:22 71° SW 08:29:24 10° SE visible
29 Mar 10.1 10:16:26 10° W 10:23:09 20° SW 10:29:49 10° SSW visible
30 Mar 9.1 01:27:59 10° WSW 01:37:45 81° NNW 01:47:53 10° ENE visible
30 Mar 9.7 03:34:25 10° W 03:43:56 48° N 03:46:24 41° NNE visible
30 Mar 10.5 05:40:53 10° WNW 05:59:02 16° E 06:00:43 10° E visible
30 Mar 9.0 07:57:22 70° S 07:57:22 70° S 08:06:29 10° SE visible
30 Mar 10.0 09:55:43 16° W 10:00:16 22° SW 10:07:22 10° S visible
